www.pogodaiklimat.ru

Погода и климат >> Архив погоды >> Россия >> Алтайский край >> Чарышское


ПОГОДА в Чарышском

  • Прогноз погоды в Чарышском
  • Монитор погоды в Чарышском
  • Климат города

АРХИВ ПОГОДЫ в Чарышском

Время (UTC), дата Ветер
(напр.,м/с)
 
Видим.   Явления Облачность Т
(С)
Тd
(С)
f
(%)
Тe
(С)
Тes
(С)
Комфортность P
(гПа)
Po
(гПа)
Тmin
(С)
Tmax
(С)
R
(мм)
R24
(мм)
S
(см)
09 14.10 З 2 50 км ясно +15.3 -10.6 16 +15 +18 1019.3 969.0
12 14.10 ЮВ 1 50 км ясно +6.4 -7.9 35 +6 +6 1021.2 969.3 +15.4
15 14.10 штиль 0 50 км ясно -1.7 -5.6 75 -3 -3 1022.9 969.4
18 14.10 штиль 0 50 км ясно -4.4 -6.6 85 -5 -5 1023.2 969.1
21 14.10 штиль 0 50 км ясно -5.8 -7.5 88 -7 -7 1022.8 968.4
00 15.10 штиль 0 50 км ясно -6.1 -7.9 87 -7 -7 1022.3 967.9 -6.3
03 15.10 штиль 0 50 км 4/0
[Ac lent Cs]
+1.0 -5.6 61 0 +2 1020.3 967.3
06 15.10 штиль 0 50 км 10/0
[Ac As Cs]
+12.4 -4.1 31 +12 +15 1016.4 965.8
09 15.10 СЗ 1 50 км 10/0
[Ac und Cs]
+11.9 -2.1 38 +12 +14 1015.6 964.8
12 15.10 ЮВ 3
{11}
50 км 9/6 1000 м
[Cb cap Ac As Ci fib]
+15.2 -0.8 33 +15 +15 1015.4 965.4 +16.7
15 15.10 ЮВ 2 50 км 10/10 1000 м
[Cb cap]
+12.5 -0.4 41 +12 +12 1016.5 965.9
18 15.10 штиль 0 50 км 3/0
[Ac As]
+6.1 +0.6 68 +5 +5 1017.4 965.7
21 15.10 СЗ 1 50 км 4/0
[Ac As]
+10.0 +1.1 54 +10 +10 1017.0 966.1
00 16.10 штиль 0 50 км 8/0
[Ac As Ci fib]
+6.2 +0.8 68 +6 +6 1018.5 966.7 +6.1
03 16.10 СЗ 2 50 км 8/0
[Ac trans]
+7.6 +1.4 65 +6 +6 1019.2 967.6 +4.4
06 16.10 З 2 50 км 8/0
[Ac trans]
+13.6 -2.7 32 +13 +16 1018.1 967.6
09 16.10 З 3 50 км 3/0
[Ac trans]
+15.2 -3.2 28 +15 +16 1017.3 967.2
12 16.10 ЮВ 1 50 км 1/0
[Ci fib]
+8.3 -1.2 51 +8 +8 1019.8 967.4 +15.3
15 16.10 штиль 0 50 км 1/0
[Ci fib]
+1.3 -2.1 78 1022.4 969.1
18 16.10 штиль 0 50 км ясно -1.5 -3.3 88 -3 -3 1024.3 970.7
21 16.10 штиль 0 50 км ясно -3.5 -4.8 91 -5 -5 1024.8 970.8
00 17.10 штиль 0 10 км ясно -4.1 -5.3 91 -5 -5 1025.3 971.1 -4.1
03 17.10 штиль 0 50 км 3/0
[Ci fib]
+0.5 -2.2 82 -1 +1 1024.0 970.8 -4.2
06 17.10 штиль 0 50 км ясно +0.5 -2.2 82 -1 +6 1020.4 969.6
09 17.10 СЗ 2 50 км 3/0
[Ci fib]
+15.5 -2.1 30 +16 +18 1017.3 967.2
12 17.10 штиль 0 50 км 10/0
[Ac und]
+10.0 0.0 50 +10 +10 1018.6 967.5 +16.3
15 17.10 штиль 0 50 км ясно +4.2 +0.1 75 +3 +3 1019.3 967.1
18 17.10 штиль 0 50 км 1/0
[Ac As]
+0.7 -1.4 86 -0 -0 1018.6 965.8
21 17.10 штиль 0 50 км 10/0
[Ac und]
+2.3 -0.3 83 +1 +1 1016.9 964.6
00 18.10 штиль 0 50 км 3/0
[Ac As]
-1.0 -2.3 91 -2 -2 1016.8 963.7 -1.0
03 18.10 штиль 0 50 км 3/0
[Ci fib]
+3.0 -0.3 79 +2 +3 1015.2 963.0 -1.3
06 18.10 штиль 0 50 км ясно +15.4 +1.9 40 +15 +21 1010.8 961.0
09 18.10 СЗ 2 50 км 10/0
[Ci fib]
+19.0 -0.8 26 +20 +21 1009.0 960.0
12 18.10 штиль 0 50 км 3/0
[Ci fib]
+8.3 +1.5 62 +8 +8 1011.5 960.5 +19.2
15 18.10 СЗ 1 50 км 3/0
[Ci fib]
+4.7 +0.5 74 +4 +4 1013.7 961.8
18 18.10 штиль 0 50 км 9/0
[Cs]
+1.7 -0.5 85 +1 +1 1014.4 962.0
21 18.10 Ю 1 50 км 10/10 1000 м
[Cb cap]
+3.8 +0.8 81 +2 +2 1015.3 963.1
00 19.10 С 4 50 км {ливн. осадки} 10/10 1000 м
[Cb cap]
+8.3 +4.3 76 +5 +5 1017.6 966.3 +1.7 0.0
03 19.10 СЗ 2 20 км слабый ливневой дождь 10/8 1000 м
[Cb cap Ac und]
+7.3 +3.2 75 +5 +5 1021.0 969.3
06 19.10 Ю 4 50 км {ливн. осадки} 10/3 1000 м
[Cb cap Ac und]
+8.8 +0.3 55 +6 +7 1021.4 969.9
09 19.10 Ю 4 50 км 8/4 1000 м
[Cb cap Ac cuf]
+11.7 -2.9 36 +10 +11 1018.8 967.9
12 19.10 ЮВ 1 50 км 9/3 1000 м
[Cb cap Ac lent Cs]
+6.1 -0.2 64 +5 +5 1019.1 967.3 +11.9 0.0
15 19.10 З 3 50 км 10 баллов +7.1 +1.8 69 +4 +4 1019.6 968.0
18 19.10 ЮВ 2 50 км 10 баллов +5.3 +1.0 74 +3 +3 1017.1 965.3
21 19.10 Ю 2 10 км слабый ливневой дождь 10/10 1000 м
[Cb cap]
+6.3 +0.4 66 +4 +4 1015.1 963.5
00 20.10 Ю 3 50 км {ливн. осадки} 10/10 1000 м
[Cb cap]
+6.0 +0.1 66 +3 +3 1015.8 964.2 +3.8 1
03 20.10 З 2 20 км слабый ливневой дождь 10/10 1000 м
[Cb cap]
+5.2 +1.2 75 +3 +3 1018.8 966.8
06 20.10 Ю 5 50 км 10 баллов +8.4 +0.4 57 +5 +5 1019.4 968.0
09 20.10 ЮЗ 4
{14}
50 км 10/4 1000 м
[Cb cap Ac As]
+8.5 -0.3 54 +6 +6 1018.7 967.3
12 20.10 Ю 4
{13}
50 км 8/4 1000 м
[Cb cap Ac As Ci sp]
+8.5 +0.8 58 +6 +6 1019.4 968.0 +9.5 0.7
15 20.10 ЮЗ 4 50 км 8/4 1000 м
[Cb cap Ac As Ci sp]
+9.8 +1.2 55 +7 +7 1018.4 967.3
18 20.10 ЮЗ 4 50 км 10 баллов +9.0 +1.2 58 +6 +6 1019.2 968.0
21 20.10 ЮЗ 4 50 км 10 баллов +9.1 +0.5 55 +7 +7 1019.2 968.0
00 21.10 Ю 3
{10}
50 км 10/3 1000 м
[Cb cap Ac As Ci fib]
+9.5 +0.7 54 +8 +8 1016.9 965.8 +8.5
03 21.10 Ю 3
{12}
50 км 10/4 1000 м
[Cb cap Ac trans]
+11.9 +0.6 46 +11 +11 1015.4 964.8
06 21.10 Ю 4 50 км 10 баллов +13.2 +0.9 43 +12 +12 1015.6 965.3

 

Местоположение метеостанции Чарышское (Алтайский край, Россия): широта 51.38 долгота 83.58 высота над уровнем моря 429 м.

В архиве по умолчанию представлена погода в Чарышском за последнюю неделю. Архивные данные за месяц целиком и за предыдущие месяцы, начиная с января 2011 года, Вы можете получить, выбрав интересующий диапазон дат из раскрывающегося списка и нажав кнопку "Ввод!".

Внимание! Время в таблицах - всемирное. Для получения местного времени необходимо прибавить поправку, которая в Чарышском равна 7 ч.

Смотрите также архив погоды в соседних городах и на ближайших метеорологических станциях:

Погода в Солонешном (Алтайский край, Россия) (59 км)
Погода в Краснощеково (Алтайский край, Россия) (67 км)
Погода в Усть-Калманке (Алтайский край, Россия) (83 км)
Погода в Усть-Кане (Алтай, Россия) (96 км)
Погода в Змеиногорске (Алтайский край, Россия) (101 км)
Погода в Усть-Чарышской Пристани (Алтайский край, Россия) (114 км)
Погода в Белокурихе (Алтайский край, Россия) (117 км)
Погода в Риддере (Восточно-Казахстанская область, Казахстан) (117 км)
Погода в Шипуново (Алтайский край, Россия) (125 км)
Погода в Секисовке (Восточно-Казахстанская область, Казахстан) (136 км)

Пояснения к столбцам:

Ветер - указаны скорость ветра в м/с - средняя за 10 мин, порывы в срок и между сроками (в фигурных скобках) и направление, откуда дует ветер: С - северный, СВ - северо-восточный, В - восточный, ЮВ - юго-восточный, Ю - южный, ЮЗ - юго-западный, З - западный, СЗ - северо-западный.
Видимость - горизонтальная дальность видимости в метрах или километрах. При видимости от 1 до 10 км при отсутствии осадков обычно наблюдается дымка, при ухудшении видимости до 1 км и менее - туман. В сухую погоду видимость может ухудшаться дымом, пылью или мглою.
Явления - указаны атмосферные явления, наблюдавшиеся в срок или в последний час перед сроком; фигурными скобками обозначены явления, наблюдавшиеся между сроками (за 1-3 часа до срока); квадратными скобками обозначены град или гололедные отложения с указанием их диаметра в мм.
Облачность - указаны через наклонную черту общая и нижняя облачность в баллах и высота нижней границы облаков в метрах; квадратными скобками обозначены формы облаков: Ci - перистые, Cs - перисто-слоистые, Cc - перисто-кучевые, Ac - высококучевые, As - высокослоистые, Sc - слоисто-кучевые, Ns - слоисто-дождевые, Cu - кучевые, Cb - кучево-дождевые. Подробнее классификацию облаков см. в Атласе облаков (PDF).
T - Температура воздуха - температура, измеренная на высоте 2 м над землей.
Td - Температура точки росы - температура, при понижении до которой содержащийся в воздухе водяной пар достигнет насыщения.
f - Относительная влажность воздуха - влажноcть воздуха, измеренная на высоте 2 м над землей.
Te - Эффективная температура - температура, которую ощущает одетый по сезону человек в тени. Характеристика душности погоды. При расчете учитывается влияние влажности воздуха и скорости ветра на теплоощущения человека.
Tes - Эффективная температура на солнце - температура, которую ощущает человек, с поправкой на солнечный нагрев. Характеристика знойности погоды. Зависит от высоты солнца над горизонтом, облачности и скорости ветра. Ночью, в пасмурную погоду, а также при ветре 12 м/с и более поправка равна нулю.
P - Атмосферное давление - приведенное к уровню моря атмосферное давление.
Po - Атмосферное давление - измеренное на уровне метеостанции атмосферное давление.
Tmin - Минимальная температура - минимум температуры воздуха на высоте 2 м над землей.
Tmax - Максимальная температура - максимум температуры воздуха на высоте 2 м над землей.
R - Количество осадков - Количество выпавших осадков за период времени, мм. При наведении курсора мыши на число - период времени, за который выпало указанное количество осадков.
R24 - Количество осадков - Количество выпавших осадков за 24 часа, мм.
S - Снежный покров - Высота снежного покрова, см. При наведении курсора мыши на число - состояние снежного покрова и степень покрытия местности в баллах.